When you browse on this site, cookies collect data to enhance your experience and personalize the content and advertising you see.
Visit our Privacy Policy to learn more. By continuing to use the site, you agree to this use of cookies and data.
  • In Deutschland
  • Länderverzeichnis
  • Für 7 Tage
  • Wassertemperatur
  • Satellitenkarten
  • Wetterkarte
  • Widgets
  • user-avatar
    Anmelden

    Stündliche Wetter Namib-Naukluft Park

    Heute, 21 Januar, Montag

    Zeit Temperatur Niederschläge Wind Luftdruck Luftfeuchtigkeit
    00:00 +25°C° 0 mm 1 m/S 703 mmHg 38%
    01:00 +24°C° 0 mm 1 m/S 703 mmHg 41%
    02:00 +23°C° 0 mm 1 m/S 703 mmHg 46%
    03:00 +22°C° 0 mm 1 m/S 703 mmHg 51%
    04:00 +21°C° 0 mm 1 m/S 703 mmHg 57%
    05:00 +21°C° 0 mm 1 m/S 703 mmHg 54%
    06:00 +20°C° 0 mm 0 m/S 703 mmHg 52%
    07:00 +21°C° 0 mm 0 m/S 703 mmHg 50%
    08:00 +25°C° 0 mm 1 m/S 704 mmHg 41%
    09:00 +28°C° 0 mm 2 m/S 704 mmHg 33%
    10:00 +31°C° 0 mm 3 m/S 705 mmHg 24%
    11:00 +34°C° 0 mm 4 m/S 704 mmHg 23%
    12:00 +35°C° 0 mm 5 m/S 704 mmHg 21%
    13:00 +36°C° 0 mm 6 m/S 704 mmHg 20%
    14:00 +36°C° 0 mm 7 m/S 703 mmHg 22%
    15:00 +35°C° 0 mm 7 m/S 703 mmHg 24%
    16:00 +34°C° 0 mm 7 m/S 703 mmHg 25%
    17:00 +32°C° 0 mm 6 m/S 703 mmHg 29%
    18:00 +29°C° 0 mm 5 m/S 702 mmHg 32%
    19:00 +27°C° 0 mm 4 m/S 702 mmHg 36%
    20:00 +25°C° 0 mm 3 m/S 703 mmHg 39%
    21:00 +24°C° 0 mm 2 m/S 703 mmHg 43%
    22:00 +23°C° 0 mm 1 m/S 703 mmHg 46%
    23:00 +22°C° 0 mm 1 m/S 703 mmHg 48%

    Morgen, 22 Januar, Dienstag

    Zeit Temperatur Niederschläge Wind Luftdruck Luftfeuchtigkeit
    00:00 +22°C° 0 mm 1 m/S 702 mmHg 50%
    01:00 +21°C° 0 mm 1 m/S 702 mmHg 52%
    02:00 +21°C° 0 mm 1 m/S 702 mmHg 53%
    03:00 +21°C° 0 mm 1 m/S 702 mmHg 55%
    04:00 +20°C° 0 mm 1 m/S 702 mmHg 56%
    05:00 +21°C° 0 mm 1 m/S 702 mmHg 53%
    06:00 +23°C° 0 mm 1 m/S 703 mmHg 49%
    07:00 +24°C° 0 mm 1 m/S 703 mmHg 45%
    08:00 +26°C° 0 mm 2 m/S 704 mmHg 38%
    09:00 +29°C° 0 mm 2 m/S 704 mmHg 31%
    10:00 +31°C° 0 mm 3 m/S 704 mmHg 24%
    11:00 +34°C° 0 mm 4 m/S 704 mmHg 22%
    12:00 +36°C° 0 mm 5 m/S 704 mmHg 19%
    13:00 +37°C° 0 mm 5 m/S 703 mmHg 17%
    14:00 +38°C° 0 mm 6 m/S 703 mmHg 16%
    15:00 +36°C° 0 mm 7 m/S 702 mmHg 16%
    16:00 +37°C° 0 mm 8 m/S 702 mmHg 15%
    17:00 +33°C° 0 mm 7 m/S 702 mmHg 19%
    18:00 +30°C° 0 mm 6 m/S 702 mmHg 22%
    19:00 +27°C° 0 mm 6 m/S 701 mmHg 26%
    20:00 +25°C° 0 mm 4 m/S 702 mmHg 31%
    21:00 +24°C° 0 mm 3 m/S 702 mmHg 37%
    22:00 +21°C° 0 mm 2 m/S 702 mmHg 42%
    23:00 +21°C° 0 mm 2 m/S 702 mmHg 46%

    übermorgen, 23 Januar, Mittwoch

    Zeit Temperatur Niederschläge Wind Luftdruck Luftfeuchtigkeit
    00:00 +21°C° 0 mm 1 m/S 702 mmHg 50%
    01:00 +20°C° 0 mm 1 m/S 702 mmHg 54%
    02:00 +19°C° 0 mm 1 m/S 701 mmHg 59%
    03:00 +19°C° 0 mm 1 m/S 701 mmHg 63%
    04:00 +17°C° 0 mm 2 m/S 701 mmHg 67%
    05:00 +18°C° 0 mm 2 m/S 701 mmHg 65%
    06:00 +18°C° 0 mm 2 m/S 702 mmHg 63%
    07:00 +19°C° 0 mm 2 m/S 702 mmHg 61%
    08:00 +21°C° 0 mm 2 m/S 703 mmHg 52%
    09:00 +25°C° 0 mm 3 m/S 703 mmHg 42%
    10:00 +27°C° 0 mm 3 m/S 704 mmHg 33%
    11:00 +29°C° 0 mm 4 m/S 703 mmHg 29%
    12:00 +32°C° 0 mm 4 m/S 703 mmHg 24%
    13:00 +35°C° 0 mm 5 m/S 703 mmHg 19%
    14:00 +34°C° 0 mm 6 m/S 703 mmHg 22%
    15:00 +34°C° 0 mm 7 m/S 702 mmHg 24%
    16:00 +33°C° 0 mm 7 m/S 701 mmHg 26%
    17:00 +29°C° 0 mm 7 m/S 701 mmHg 35%
    18:00 +26°C° 0 mm 6 m/S 701 mmHg 44%
    19:00 +23°C° 0 mm 5 m/S 701 mmHg 52%
    20:00 +22°C° 0 mm 4 m/S 701 mmHg 57%
    21:00 +20°C° 0 mm 3 m/S 701 mmHg 61%
    22:00 +20°C° 0 mm 1 m/S 701 mmHg 66%
    23:00 +20°C° 0 mm 1 m/S 701 mmHg 67%

    24 Januar, Donnerstag

    Zeit Temperatur Niederschläge Wind Luftdruck Luftfeuchtigkeit
    00:00 +20°C° 0 mm 1 m/S 701 mmHg 69%
    01:00 +19°C° 0 mm 1 m/S 700 mmHg 71%
    02:00 +19°C° 0 mm 1 m/S 700 mmHg 72%
    03:00 +19°C° 0 mm 1 m/S 700 mmHg 73%
    04:00 +17°C° 0 mm 2 m/S 700 mmHg 74%
    05:00 +18°C° 0 mm 2 m/S 700 mmHg 71%
    06:00 +19°C° 0 mm 2 m/S 701 mmHg 67%
    07:00 +19°C° 0 mm 3 m/S 701 mmHg 64%
    08:00 +22°C° 0 mm 3 m/S 702 mmHg 54%
    09:00 +26°C° 0 mm 3 m/S 702 mmHg 44%
    10:00 +29°C° 0 mm 3 m/S 703 mmHg 33%
    11:00 +32°C° 0 mm 4 m/S 702 mmHg 29%
    12:00 +34°C° 0 mm 4 m/S 702 mmHg 25%
    13:00 +36°C° 0 mm 5 m/S 702 mmHg 21%
    14:00 +36°C° 0 mm 5 m/S 701 mmHg 21%
    15:00 +35°C° 0 mm 6 m/S 701 mmHg 22%
    16:00 +35°C° 0 mm 7 m/S 700 mmHg 23%
    17:00 +33°C° 0 mm 6 m/S 700 mmHg 28%
    18:00 +29°C° 0 mm 5 m/S 700 mmHg 33%
    19:00 +27°C° 0 mm 4 m/S 700 mmHg 39%
    20:00 +26°C° 0 mm 3 m/S 700 mmHg 43%
    21:00 +24°C° 0 mm 2 m/S 700 mmHg 47%
    22:00 +23°C° 0 mm 1 m/S 701 mmHg 52%
    23:00 +23°C° 0 mm 1 m/S 700 mmHg 54%

    25 Januar, Freitag

    Zeit Temperatur Niederschläge Wind Luftdruck Luftfeuchtigkeit
    00:00 +22°C° 0 mm 1 m/S 700 mmHg 56%
    01:00 +21°C° 0 mm 1 m/S 700 mmHg 58%
    02:00 +21°C° 0 mm 1 m/S 700 mmHg 58%
    03:00 +22°C° 0 mm 1 m/S 700 mmHg 57%
    04:00 +22°C° 0 mm 1 m/S 700 mmHg 56%
    05:00 +23°C° 0 mm 1 m/S 700 mmHg 52%
    06:00 +24°C° 0 mm 1 m/S 701 mmHg 48%
    07:00 +25°C° 0 mm 1 m/S 701 mmHg 44%
    08:00 +28°C° 0 mm 1 m/S 702 mmHg 38%
    09:00 +30°C° 0 mm 2 m/S 702 mmHg 32%
    10:00 +34°C° 0 mm 3 m/S 702 mmHg 26%
    11:00 +35°C° 0 mm 4 m/S 702 mmHg 24%
    12:00 +37°C° 0 mm 5 m/S 702 mmHg 21%
    13:00 +39°C° 0 mm 6 m/S 702 mmHg 19%
    14:00 +38°C° 0 mm 6 m/S 701 mmHg 21%
    15:00 +36°C° 0 mm 7 m/S 701 mmHg 22%
    16:00 +36°C° 0 mm 7 m/S 700 mmHg 24%
    17:00 +33°C° 0 mm 6 m/S 700 mmHg 28%
    18:00 +30°C° 0 mm 5 m/S 701 mmHg 32%
    19:00 +28°C° 0 mm 3 m/S 701 mmHg 36%
    20:00 +27°C° 0 mm 2 m/S 701 mmHg 39%
    21:00 +26°C° 0 mm 2 m/S 701 mmHg 42%
    22:00 +25°C° 0 mm 1 m/S 702 mmHg 45%
    23:00 +24°C° 0 mm 1 m/S 701 mmHg 47%

    26 Januar, Samstag

    Zeit Temperatur Niederschläge Wind Luftdruck Luftfeuchtigkeit
    00:00 +24°C° 0 mm 1 m/S 701 mmHg 49%
    01:00 +23°C° 0 mm 1 m/S 701 mmHg 51%
    02:00 +23°C° 0 mm 1 m/S 701 mmHg 52%
    03:00 +20°C° 0 mm 0 m/S 700 mmHg 53%
    04:00 +20°C° 0 mm 0 m/S 700 mmHg 55%
    05:00 +21°C° 0 mm 0 m/S 701 mmHg 51%
    06:00 +24°C° 0 mm 1 m/S 702 mmHg 47%
    07:00 +25°C° 0 mm 1 m/S 702 mmHg 42%
    08:00 +27°C° 0 mm 2 m/S 703 mmHg 40%
    09:00 +28°C° 0 mm 2 m/S 703 mmHg 37%
    10:00 +29°C° 0 mm 3 m/S 703 mmHg 34%
    11:00 +32°C° 0 mm 4 m/S 703 mmHg 29%
    12:00 +34°C° 0 mm 4 m/S 703 mmHg 25%
    13:00 +35°C° 0 mm 5 m/S 703 mmHg 21%
    14:00 +35°C° 0 mm 6 m/S 703 mmHg 21%
    15:00 +35°C° 0 mm 6 m/S 702 mmHg 21%
    16:00 +35°C° 0 mm 7 m/S 702 mmHg 22%
    17:00 +33°C° 0 mm 6 m/S 702 mmHg 29%
    18:00 +29°C° 0 mm 5 m/S 702 mmHg 36%
    19:00 +26°C° 0 mm 4 m/S 702 mmHg 43%
    20:00 +25°C° 0 mm 3 m/S 702 mmHg 46%
    21:00 +24°C° 0 mm 2 m/S 702 mmHg 50%
    22:00 +23°C° 0 mm 1 m/S 702 mmHg 54%
    23:00 +22°C° 0 mm 1 m/S 702 mmHg 54%
    Mehr zeigen